owner,sensor,date,latitude,longitude,air_pressure(mBar),qcFlag 
TABS,ioos:station:wmo:42045:1,2013-04-01T00:00:00Z,26.2168,-96.4998,1009.82,11111222 
TABS,ioos:station:wmo:42045:1,2013-04-01T00:30:00Z,26.2168,-96.4998,1009.72,11111222 
TABS,ioos:station:wmo:42045:1,2013-04-01T01:00:00Z,26.2168,-96.4998,1010.06,11111222 
TABS,ioos:station:wmo:42045:1,2013-04-01T01:30:00Z,26.2168,-96.4998,1010.34,11111222 
TABS,ioos:station:wmo:42045:1,2013-04-01T02:00:00Z,26.2168,-96.4998,1011.89,11111222 
TABS,ioos:station:wmo:42045:1,2013-04-01T02:30:00Z,26.2168,-96.4998,1012.58,11111222 
TABS,ioos:station:wmo:42045:1,2013-04-01T03:00:00Z,26.2168,-96.4998,1013.77,11111222 
TABS,ioos:station:wmo:42045:1,2013-04-01T03:30:00Z,26.2168,-96.4998,1014.56,11111222 
TABS,ioos:station:wmo:42045:1,2013-04-01T04:00:00Z,26.2168,-96.4998,1015.89,11111222 
TABS,ioos:station:wmo:42045:1,2013-04-01T04:30:00Z,26.2168,-96.4998,1015.69,11111222 
TABS,ioos:station:wmo:42045:1,2013-04-01T05:00:00Z,26.2168,-96.4998,1014.04,11111222 
TABS,ioos:station:wmo:42045:1,2013-04-01T05:30:00Z,26.2168,-96.4998,1013.36,11111222 
TABS,ioos:station:wmo:42045:1,2013-04-01T06:00:00Z,26.2168,-96.4998,1011.98,11111222 
TABS,ioos:station:wmo:42045:1,2013-04-01T06:30:00Z,26.2168,-96.4998,1012.55,11111222 
TABS,ioos:station:wmo:42045:1,2013-04-01T07:00:00Z,26.2168,-96.4998,1012.45,11111222 
TABS,ioos:station:wmo:42045:1,2013-04-01T07:30:00Z,26.2168,-96.4998,1012.5,11111222 
TABS,ioos:station:wmo:42045:1,2013-04-01T08:00:00Z,26.2168,-96.4998,1012.37,11111222 
TABS,ioos:station:wmo:42045:1,2013-04-01T08:30:00Z,26.2168,-96.4998,1012.72,11111222 
TABS,ioos:station:wmo:42045:1,2013-04-01T09:00:00Z,26.2168,-96.4998,1012.73,11111222 
TABS,ioos:station:wmo:42045:1,2013-04-01T09:30:00Z,26.2168,-96.4998,1012.77,11111222 
TABS,ioos:station:wmo:42045:1,2013-04-01T10:00:00Z,26.2168,-96.4998,1013.12,11111222 
TABS,ioos:station:wmo:42045:1,2013-04-01T10:30:00Z,26.2168,-96.4998,1013.09,11111222 
TABS,ioos:station:wmo:42045:1,2013-04-01T11:00:00Z,26.2168,-96.4998,1013.02,11111222 
TABS,ioos:station:wmo:42045:1,2013-04-01T11:30:00Z,26.2168,-96.4998,1013.27,11111222 
TABS,ioos:station:wmo:42045:1,2013-04-01T12:00:00Z,26.2168,-96.4998,1013.63,11111222 
TABS,ioos:station:wmo:42045:1,2013-04-01T12:30:00Z,26.2168,-96.4998,1013.89,11111222 
TABS,ioos:station:wmo:42045:1,2013-04-01T13:00:00Z,26.2168,-96.4998,1014.31,11111222 
TABS,ioos:station:wmo:42045:1,2013-04-01T13:30:00Z,26.2168,-96.4998,1014.48,11111222 
TABS,ioos:station:wmo:42045:1,2013-04-01T14:00:00Z,26.2168,-96.4998,1015.03,11111222 
TABS,ioos:station:wmo:42045:1,2013-04-01T14:30:00Z,26.2168,-96.4998,1015.31,11111222 
TABS,ioos:station:wmo:42045:1,2013-04-01T15:00:00Z,26.2168,-96.4998,1015.19,11111222 
TABS,ioos:station:wmo:42045:1,2013-04-01T15:30:00Z,26.2168,-96.4998,1015.28,11111222 
TABS,ioos:station:wmo:42045:1,2013-04-01T16:00:00Z,26.2168,-96.4998,1015.46,11111222 
TABS,ioos:station:wmo:42045:1,2013-04-01T16:30:00Z,26.2168,-96.4998,1016.03,11111222 
TABS,ioos:station:wmo:42045:1,2013-04-01T17:00:00Z,26.2168,-96.4998,1016.32,11111222 
TABS,ioos:station:wmo:42045:1,2013-04-01T17:30:00Z,26.2168,-96.4998,1016.26,11111222 
TABS,ioos:station:wmo:42045:1,2013-04-01T18:00:00Z,26.2168,-96.4998,1016.18,11111222 
TABS,ioos:station:wmo:42045:1,2013-04-01T18:30:00Z,26.2168,-96.4998,1015.81,11111222 
TABS,ioos:station:wmo:42045:1,2013-04-01T19:00:00Z,26.2168,-96.4998,1015.34,11111222 
TABS,ioos:station:wmo:42045:1,2013-04-01T19:30:00Z,26.2168,-96.4998,1015.16,11111222 
TABS,ioos:station:wmo:42045:1,2013-04-01T20:00:00Z,26.2168,-96.4998,1014.82,11111222 
TABS,ioos:station:wmo:42045:1,2013-04-01T20:30:00Z,26.2168,-96.4998,1014.6,11111222 
TABS,ioos:station:wmo:42045:1,2013-04-01T21:00:00Z,26.2168,-96.4998,1014.13,11111222 
TABS,ioos:station:wmo:42045:1,2013-04-01T21:30:00Z,26.2168,-96.4998,1013.85,11111222 
TABS,ioos:station:wmo:42045:1,2013-04-01T22:00:00Z,26.2168,-96.4998,1013.61,11111222 
TABS,ioos:station:wmo:42045:1,2013-04-01T22:30:00Z,26.2168,-96.4998,1013.26,11111222 
TABS,ioos:station:wmo:42045:1,2013-04-01T23:00:00Z,26.2168,-96.4998,1013.34,11111222 
TABS,ioos:station:wmo:42045:1,2013-04-01T23:30:00Z,26.2168,-96.4998,1013.08,11111222 
TABS,ioos:station:wmo:42045:1,2013-04-02T13:00:00Z,26.2168,-96.4998,1011.1,1111122 
TABS,ioos:station:wmo:42045:1,2013-04-02T13:30:00Z,26.2168,-96.4998,1012.55,1111122 
TABS,ioos:station:wmo:42045:1,2013-04-02T14:00:00Z,26.2168,-96.4998,1013.0,1111122 
TABS,ioos:station:wmo:42045:1,2013-04-02T14:30:00Z,26.2168,-96.4998,1013.06,1111122 
TABS,ioos:station:wmo:42045:1,2013-04-02T15:00:00Z,26.2168,-96.4998,1013.27,1111122 
TABS,ioos:station:wmo:42045:1,2013-04-02T15:30:00Z,26.2168,-96.4998,1013.35,1111122 
TABS,ioos:station:wmo:42045:1,2013-04-02T16:00:00Z,26.2168,-96.4998,1012.68,1111122 
TABS,ioos:station:wmo:42045:1,2013-04-02T16:30:00Z,26.2168,-96.4998,1012.32,1111122 
TABS,ioos:station:wmo:42045:1,2013-04-02T17:00:00Z,26.2168,-96.4998,1012.46,1111122 
TABS,ioos:station:wmo:42045:1,2013-04-02T17:30:00Z,26.2168,-96.4998,1012.35,1111122 
TABS,ioos:station:wmo:42045:1,2013-04-02T18:00:00Z,26.2168,-96.4998,1012.14,1111122 
TABS,ioos:station:wmo:42045:1,2013-04-02T18:30:00Z,26.2168,-96.4998,1011.8,1111122 
TABS,ioos:station:wmo:42045:1,2013-04-02T19:00:00Z,26.2168,-96.4998,1011.23,1111122 
TABS,ioos:station:wmo:42045:1,2013-04-02T19:30:00Z,26.2168,-96.4998,1010.83,1111122 
TABS,ioos:station:wmo:42045:1,2013-04-02T20:00:00Z,26.2168,-96.4998,1010.24,1111122 
TABS,ioos:station:wmo:42045:1,2013-04-02T20:30:00Z,26.2168,-96.4998,1009.78,1111122 
TABS,ioos:station:wmo:42045:1,2013-04-02T21:00:00Z,26.2168,-96.4998,1009.4,1111122 
TABS,ioos:station:wmo:42045:1,2013-04-02T21:30:00Z,26.2168,-96.4998,1008.71,1111122 
TABS,ioos:station:wmo:42045:1,2013-04-02T22:00:00Z,26.2168,-96.4998,1008.38,1111122 
TABS,ioos:station:wmo:42045:1,2013-04-02T22:30:00Z,26.2168,-96.4998,1008.13,1111122 
TABS,ioos:station:wmo:42045:1,2013-04-02T23:00:00Z,26.2168,-96.4998,1007.95,1111122 
TABS,ioos:station:wmo:42045:1,2013-04-02T23:30:00Z,26.2168,-96.4998,1008.0,1111122 
TABS,ioos:station:wmo:42045:1,2013-04-03T00:00:00Z,26.2168,-96.4998,1007.88,11111222 
TABS,ioos:station:wmo:42045:1,2013-04-03T00:30:00Z,26.2168,-96.4998,1008.06,11111222 
TABS,ioos:station:wmo:42045:1,2013-04-03T01:00:00Z,26.2168,-96.4998,1007.95,11111222 
TABS,ioos:station:wmo:42045:1,2013-04-03T01:30:00Z,26.2168,-96.4998,1007.92,11111222 
TABS,ioos:station:wmo:42045:1,2013-04-03T02:00:00Z,26.2168,-96.4998,1008.42,11111222 
TABS,ioos:station:wmo:42045:1,2013-04-03T02:30:00Z,26.2168,-96.4998,1008.38,11111222 
TABS,ioos:station:wmo:42045:1,2013-04-03T03:00:00Z,26.2168,-96.4998,1008.53,11111222 
TABS,ioos:station:wmo:42045:1,2013-04-03T03:30:00Z,26.2168,-96.4998,1008.92,11111222 
TABS,ioos:station:wmo:42045:1,2013-04-03T04:00:00Z,26.2168,-96.4998,1009.12,11111222 
TABS,ioos:station:wmo:42045:1,2013-04-03T04:30:00Z,26.2168,-96.4998,1009.11,11111222 
TABS,ioos:station:wmo:42045:1,2013-04-03T05:00:00Z,26.2168,-96.4998,1009.36,11111222 
TABS,ioos:station:wmo:42045:1,2013-04-03T05:30:00Z,26.2168,-96.4998,1009.17,11111222 
TABS,ioos:station:wmo:42045:1,2013-04-03T06:00:00Z,26.2168,-96.4998,1008.92,11111222 
TABS,ioos:station:wmo:42045:1,2013-04-03T06:30:00Z,26.2168,-96.4998,1008.66,11111222 
TABS,ioos:station:wmo:42045:1,2013-04-03T07:00:00Z,26.2168,-96.4998,1008.85,11111222 
TABS,ioos:station:wmo:42045:1,2013-04-03T07:30:00Z,26.2168,-96.4998,1009.06,11111222 
TABS,ioos:station:wmo:42045:1,2013-04-03T08:00:00Z,26.2168,-96.4998,1008.6,11111222 
TABS,ioos:station:wmo:42045:1,2013-04-03T08:30:00Z,26.2168,-96.4998,1009.02,11111222 
TABS,ioos:station:wmo:42045:1,2013-04-03T09:00:00Z,26.2168,-96.4998,1008.76,11111222 
TABS,ioos:station:wmo:42045:1,2013-04-03T09:30:00Z,26.2168,-96.4998,1008.79,11111222 
TABS,ioos:station:wmo:42045:1,2013-04-03T10:00:00Z,26.2168,-96.4998,1008.71,11111222 
TABS,ioos:station:wmo:42045:1,2013-04-03T10:30:00Z,26.2168,-96.4998,1008.52,11111222 
TABS,ioos:station:wmo:42045:1,2013-04-03T11:00:00Z,26.2168,-96.4998,1008.75,11111222 
TABS,ioos:station:wmo:42045:1,2013-04-03T11:30:00Z,26.2168,-96.4998,1008.86,11111222 
TABS,ioos:station:wmo:42045:1,2013-04-03T12:00:00Z,26.2168,-96.4998,1008.74,11111222 
TABS,ioos:station:wmo:42045:1,2013-04-03T12:30:00Z,26.2168,-96.4998,1009.23,11111222 
TABS,ioos:station:wmo:42045:1,2013-04-03T13:00:00Z,26.2168,-96.4998,1009.63,11111222 
TABS,ioos:station:wmo:42045:1,2013-04-03T13:30:00Z,26.2168,-96.4998,1009.77,11111222 
TABS,ioos:station:wmo:42045:1,2013-04-03T14:00:00Z,26.2168,-96.4998,1009.96,11111222 
TABS,ioos:station:wmo:42045:1,2013-04-03T14:30:00Z,26.2168,-96.4998,1010.97,11111222 
TABS,ioos:station:wmo:42045:1,2013-04-03T15:00:00Z,26.2168,-96.4998,1011.15,11111222 
TABS,ioos:station:wmo:42045:1,2013-04-03T15:30:00Z,26.2168,-96.4998,1010.66,11111222 
TABS,ioos:station:wmo:42045:1,2013-04-03T16:00:00Z,26.2168,-96.4998,1010.68,11111222 
TABS,ioos:station:wmo:42045:1,2013-04-03T16:30:00Z,26.2168,-96.4998,1011.19,11111222 
TABS,ioos:station:wmo:42045:1,2013-04-03T17:00:00Z,26.2168,-96.4998,1011.57,11111222 
TABS,ioos:station:wmo:42045:1,2013-04-03T17:30:00Z,26.2168,-96.4998,1011.3,11111222 
TABS,ioos:station:wmo:42045:1,2013-04-03T18:00:00Z,26.2168,-96.4998,1011.11,11111222 
TABS,ioos:station:wmo:42045:1,2013-04-03T18:30:00Z,26.2168,-96.4998,1010.29,11111222 
TABS,ioos:station:wmo:42045:1,2013-04-03T19:00:00Z,26.2168,-96.4998,1009.85,11111222 
TABS,ioos:station:wmo:42045:1,2013-04-03T19:30:00Z,26.2168,-96.4998,1010.13,11111222 
TABS,ioos:station:wmo:42045:1,2013-04-03T20:00:00Z,26.2168,-96.4998,1010.06,11111222 
TABS,ioos:station:wmo:42045:1,2013-04-03T20:30:00Z,26.2168,-96.4998,1009.96,11111222 
TABS,ioos:station:wmo:42045:1,2013-04-03T21:00:00Z,26.2168,-96.4998,1010.1,11111222 
TABS,ioos:station:wmo:42045:1,2013-04-03T21:30:00Z,26.2168,-96.4998,1010.36,11111222 
TABS,ioos:station:wmo:42045:1,2013-04-03T22:00:00Z,26.2168,-96.4998,1010.72,11111222 
TABS,ioos:station:wmo:42045:1,2013-04-03T22:30:00Z,26.2168,-96.4998,1010.78,11111222 
TABS,ioos:station:wmo:42045:1,2013-04-03T23:00:00Z,26.2168,-96.4998,1011.24,11111222 
TABS,ioos:station:wmo:42045:1,2013-04-03T23:30:00Z,26.2168,-96.4998,1011.0,11111222 
TABS,ioos:station:wmo:42045:1,2013-04-04T00:00:00Z,26.2168,-96.4998,1011.85,11111222 
TABS,ioos:station:wmo:42045:1,2013-04-04T00:30:00Z,26.2168,-96.4998,1012.11,11111222 
TABS,ioos:station:wmo:42045:1,2013-04-04T01:00:00Z,26.2168,-96.4998,1012.83,11111222 
TABS,ioos:station:wmo:42045:1,2013-04-04T01:30:00Z,26.2168,-96.4998,1013.31,11111222 
TABS,ioos:station:wmo:42045:1,2013-04-04T02:00:00Z,26.2168,-96.4998,1014.17,11111222 
TABS,ioos:station:wmo:42045:1,2013-04-04T02:30:00Z,26.2168,-96.4998,1014.6,11111222 
TABS,ioos:station:wmo:42045:1,2013-04-04T03:00:00Z,26.2168,-96.4998,1015.13,11111222 
TABS,ioos:station:wmo:42045:1,2013-04-04T03:30:00Z,26.2168,-96.4998,1016.05,11111222 
TABS,ioos:station:wmo:42045:1,2013-04-04T04:00:00Z,26.2168,-96.4998,1016.31,11111222 
TABS,ioos:station:wmo:42045:1,2013-04-04T04:30:00Z,26.2168,-96.4998,1017.09,11111222 
TABS,ioos:station:wmo:42045:1,2013-04-04T05:00:00Z,26.2168,-96.4998,1017.36,11111222 
TABS,ioos:station:wmo:42045:1,2013-04-04T05:30:00Z,26.2168,-96.4998,1017.23,11111222 
TABS,ioos:station:wmo:42045:1,2013-04-04T06:00:00Z,26.2168,-96.4998,1016.93,11111222 
TABS,ioos:station:wmo:42045:1,2013-04-04T06:30:00Z,26.2168,-96.4998,1017.25,11111222 
TABS,ioos:station:wmo:42045:1,2013-04-04T07:00:00Z,26.2168,-96.4998,1017.14,11111222 
TABS,ioos:station:wmo:42045:1,2013-04-04T07:30:00Z,26.2168,-96.4998,1017.23,11111222 
TABS,ioos:station:wmo:42045:1,2013-04-04T08:00:00Z,26.2168,-96.4998,1017.46,11111222 
TABS,ioos:station:wmo:42045:1,2013-04-04T08:30:00Z,26.2168,-96.4998,1017.07,11111222 
TABS,ioos:station:wmo:42045:1,2013-04-04T09:00:00Z,26.2168,-96.4998,1017.05,11111222 
TABS,ioos:station:wmo:42045:1,2013-04-04T09:30:00Z,26.2168,-96.4998,1017.15,11111222 
TABS,ioos:station:wmo:42045:1,2013-04-04T10:00:00Z,26.2168,-96.4998,1017.34,11111222 
TABS,ioos:station:wmo:42045:1,2013-04-04T10:30:00Z,26.2168,-96.4998,1017.52,11111222 
TABS,ioos:station:wmo:42045:1,2013-04-04T11:00:00Z,26.2168,-96.4998,1017.58,11111222 
TABS,ioos:station:wmo:42045:1,2013-04-04T11:30:00Z,26.2168,-96.4998,1017.77,11111222 
TABS,ioos:station:wmo:42045:1,2013-04-04T12:00:00Z,26.2168,-96.4998,1018.5,11111222 
TABS,ioos:station:wmo:42045:1,2013-04-04T12:30:00Z,26.2168,-96.4998,1018.91,11111222 
TABS,ioos:station:wmo:42045:1,2013-04-04T13:00:00Z,26.2168,-96.4998,1019.05,11111222 
TABS,ioos:station:wmo:42045:1,2013-04-04T13:30:00Z,26.2168,-96.4998,1019.49,11111222 
TABS,ioos:station:wmo:42045:1,2013-04-04T14:00:00Z,26.2168,-96.4998,1019.56,11111222 
TABS,ioos:station:wmo:42045:1,2013-04-04T14:30:00Z,26.2168,-96.4998,1019.5,11111222 
TABS,ioos:station:wmo:42045:1,2013-04-04T15:00:00Z,26.2168,-96.4998,1019.23,11111222 
TABS,ioos:station:wmo:42045:1,2013-04-04T15:30:00Z,26.2168,-96.4998,1019.77,11111222 
TABS,ioos:station:wmo:42045:1,2013-04-04T16:00:00Z,26.2168,-96.4998,1020.56,11111222 
TABS,ioos:station:wmo:42045:1,2013-04-04T16:30:00Z,26.2168,-96.4998,1020.64,11111222 
TABS,ioos:station:wmo:42045:1,2013-04-04T17:00:00Z,26.2168,-96.4998,1020.85,11111222 
TABS,ioos:station:wmo:42045:1,2013-04-04T17:30:00Z,26.2168,-96.4998,1020.74,11111222 
TABS,ioos:station:wmo:42045:1,2013-04-04T18:00:00Z,26.2168,-96.4998,1020.8,11111222 
TABS,ioos:station:wmo:42045:1,2013-04-04T18:30:00Z,26.2168,-96.4998,1020.38,11111222 
TABS,ioos:station:wmo:42045:1,2013-04-04T19:00:00Z,26.2168,-96.4998,1020.12,11111222 
TABS,ioos:station:wmo:42045:1,2013-04-04T19:30:00Z,26.2168,-96.4998,1020.04,11111222 
TABS,ioos:station:wmo:42045:1,2013-04-04T20:00:00Z,26.2168,-96.4998,1019.46,11111222 
TABS,ioos:station:wmo:42045:1,2013-04-04T20:30:00Z,26.2168,-96.4998,1019.32,11111222 
TABS,ioos:station:wmo:42045:1,2013-04-04T21:00:00Z,26.2168,-96.4998,1019.17,11111222 
TABS,ioos:station:wmo:42045:1,2013-04-04T21:30:00Z,26.2168,-96.4998,1018.96,11111222 
TABS,ioos:station:wmo:42045:1,2013-04-04T22:00:00Z,26.2168,-96.4998,1018.73,11111222 
TABS,ioos:station:wmo:42045:1,2013-04-04T22:30:00Z,26.2168,-96.4998,1018.64,11111222 
TABS,ioos:station:wmo:42045:1,2013-04-04T23:00:00Z,26.2168,-96.4998,1018.62,11111222 
TABS,ioos:station:wmo:42045:1,2013-04-04T23:30:00Z,26.2168,-96.4998,1018.33,11111222 
TABS,ioos:station:wmo:42045:1,2013-04-05T00:00:00Z,26.2168,-96.4998,1018.41,11111222 
TABS,ioos:station:wmo:42045:1,2013-04-05T00:30:00Z,26.2168,-96.4998,1018.36,11111222 
TABS,ioos:station:wmo:42045:1,2013-04-05T01:00:00Z,26.2168,-96.4998,1018.61,11111222 
TABS,ioos:station:wmo:42045:1,2013-04-05T01:30:00Z,26.2168,-96.4998,1018.96,11111222 
TABS,ioos:station:wmo:42045:1,2013-04-05T02:00:00Z,26.2168,-96.4998,1019.22,11111222 
TABS,ioos:station:wmo:42045:1,2013-04-05T02:30:00Z,26.2168,-96.4998,1019.55,11111222 
TABS,ioos:station:wmo:42045:1,2013-04-05T03:00:00Z,26.2168,-96.4998,1020.1,11111222 
TABS,ioos:station:wmo:42045:1,2013-04-05T03:30:00Z,26.2168,-96.4998,1020.45,11111222 
TABS,ioos:station:wmo:42045:1,2013-04-05T04:00:00Z,26.2168,-96.4998,1020.78,11111222 
TABS,ioos:station:wmo:42045:1,2013-04-05T04:30:00Z,26.2168,-96.4998,1020.82,11111222 
TABS,ioos:station:wmo:42045:1,2013-04-05T05:00:00Z,26.2168,-96.4998,1021.02,11111222 
TABS,ioos:station:wmo:42045:1,2013-04-05T05:30:00Z,26.2168,-96.4998,1021.1,11111222 
TABS,ioos:station:wmo:42045:1,2013-04-05T06:00:00Z,26.2168,-96.4998,1021.23,11111222 
TABS,ioos:station:wmo:42045:1,2013-04-05T06:30:00Z,26.2168,-96.4998,1021.61,11111222 
TABS,ioos:station:wmo:42045:1,2013-04-05T07:00:00Z,26.2168,-96.4998,1021.81,11111222 
TABS,ioos:station:wmo:42045:1,2013-04-05T07:30:00Z,26.2168,-96.4998,1021.86,11111222 
TABS,ioos:station:wmo:42045:1,2013-04-05T08:00:00Z,26.2168,-96.4998,1021.78,11111222 
TABS,ioos:station:wmo:42045:1,2013-04-05T08:30:00Z,26.2168,-96.4998,1021.74,11111222 
TABS,ioos:station:wmo:42045:1,2013-04-05T09:00:00Z,26.2168,-96.4998,1021.84,11111222 
TABS,ioos:station:wmo:42045:1,2013-04-05T09:30:00Z,26.2168,-96.4998,1021.7,11111222 
TABS,ioos:station:wmo:42045:1,2013-04-05T10:00:00Z,26.2168,-96.4998,1021.38,11111222 
TABS,ioos:station:wmo:42045:1,2013-04-05T10:30:00Z,26.2168,-96.4998,1021.55,11111222 
TABS,ioos:station:wmo:42045:1,2013-04-05T11:00:00Z,26.2168,-96.4998,1021.62,11111222 
TABS,ioos:station:wmo:42045:1,2013-04-05T11:30:00Z,26.2168,-96.4998,1022.11,11111222 
TABS,ioos:station:wmo:42045:1,2013-04-05T12:00:00Z,26.2168,-96.4998,1022.64,11111222 
TABS,ioos:station:wmo:42045:1,2013-04-05T12:30:00Z,26.2168,-96.4998,1023.11,11111222 
TABS,ioos:station:wmo:42045:1,2013-04-05T13:00:00Z,26.2168,-96.4998,1023.37,11111222 
TABS,ioos:station:wmo:42045:1,2013-04-05T13:30:00Z,26.2168,-96.4998,1023.84,11111222 
TABS,ioos:station:wmo:42045:1,2013-04-05T14:00:00Z,26.2168,-96.4998,1024.05,11111222 
TABS,ioos:station:wmo:42045:1,2013-04-05T14:30:00Z,26.2168,-96.4998,1024.23,11111222 
TABS,ioos:station:wmo:42045:1,2013-04-05T15:00:00Z,26.2168,-96.4998,1024.28,11111222 
TABS,ioos:station:wmo:42045:1,2013-04-05T15:30:00Z,26.2168,-96.4998,1024.3,11111222 
TABS,ioos:station:wmo:42045:1,2013-04-05T16:00:00Z,26.2168,-96.4998,1024.4,11111222 
TABS,ioos:station:wmo:42045:1,2013-04-05T16:30:00Z,26.2168,-96.4998,1024.6,11111222 
TABS,ioos:station:wmo:42045:1,2013-04-05T17:00:00Z,26.2168,-96.4998,1024.46,11111222 
TABS,ioos:station:wmo:42045:1,2013-04-05T17:30:00Z,26.2168,-96.4998,1024.02,11111222 
TABS,ioos:station:wmo:42045:1,2013-04-05T18:00:00Z,26.2168,-96.4998,1023.46,11111222 
TABS,ioos:station:wmo:42045:1,2013-04-05T18:30:00Z,26.2168,-96.4998,1022.98,11111222 
TABS,ioos:station:wmo:42045:1,2013-04-05T19:00:00Z,26.2168,-96.4998,1022.49,11111222 
TABS,ioos:station:wmo:42045:1,2013-04-05T19:30:00Z,26.2168,-96.4998,1022.03,11111222 
TABS,ioos:station:wmo:42045:1,2013-04-05T20:00:00Z,26.2168,-96.4998,1021.61,11111222 
TABS,ioos:station:wmo:42045:1,2013-04-05T20:30:00Z,26.2168,-96.4998,1021.08,11111222 
TABS,ioos:station:wmo:42045:1,2013-04-05T21:00:00Z,26.2168,-96.4998,1020.73,11111222 
TABS,ioos:station:wmo:42045:1,2013-04-05T21:30:00Z,26.2168,-96.4998,1020.39,11111222 
TABS,ioos:station:wmo:42045:1,2013-04-05T22:00:00Z,26.2168,-96.4998,1020.28,11111222 
TABS,ioos:station:wmo:42045:1,2013-04-05T22:30:00Z,26.2168,-96.4998,1019.48,11111222 
TABS,ioos:station:wmo:42045:1,2013-04-05T23:00:00Z,26.2168,-96.4998,1019.52,11111222 
TABS,ioos:station:wmo:42045:1,2013-04-05T23:30:00Z,26.2168,-96.4998,1019.47,11111222 
TABS,ioos:station:wmo:42045:1,2013-04-06T00:00:00Z,26.2168,-96.4998,1019.38,11111222 
TABS,ioos:station:wmo:42045:1,2013-04-06T00:30:00Z,26.2168,-96.4998,1019.11,11111222 
TABS,ioos:station:wmo:42045:1,2013-04-06T01:00:00Z,26.2168,-96.4998,1018.97,11111222 
TABS,ioos:station:wmo:42045:1,2013-04-06T01:30:00Z,26.2168,-96.4998,1018.97,11111222 
TABS,ioos:station:wmo:42045:1,2013-04-06T02:00:00Z,26.2168,-96.4998,1019.04,11111222 
TABS,ioos:station:wmo:42045:1,2013-04-06T02:30:00Z,26.2168,-96.4998,1018.98,11111222 
TABS,ioos:station:wmo:42045:1,2013-04-06T03:00:00Z,26.2168,-96.4998,1019.24,11111222 
TABS,ioos:station:wmo:42045:1,2013-04-06T03:30:00Z,26.2168,-96.4998,1019.33,11111222 
TABS,ioos:station:wmo:42045:1,2013-04-06T04:00:00Z,26.2168,-96.4998,1019.48,11111222 
TABS,ioos:station:wmo:42045:1,2013-04-06T04:30:00Z,26.2168,-96.4998,1019.4,11111222 
TABS,ioos:station:wmo:42045:1,2013-04-06T05:00:00Z,26.2168,-96.4998,1019.29,11111222 
TABS,ioos:station:wmo:42045:1,2013-04-06T05:30:00Z,26.2168,-96.4998,1018.82,11111222 
TABS,ioos:station:wmo:42045:1,2013-04-06T06:00:00Z,26.2168,-96.4998,1018.63,11111222 
TABS,ioos:station:wmo:42045:1,2013-04-06T06:30:00Z,26.2168,-96.4998,1018.57,11111222 
TABS,ioos:station:wmo:42045:1,2013-04-06T07:00:00Z,26.2168,-96.4998,1018.16,11111222 
TABS,ioos:station:wmo:42045:1,2013-04-06T07:30:00Z,26.2168,-96.4998,1017.85,11111222 
TABS,ioos:station:wmo:42045:1,2013-04-06T08:00:00Z,26.2168,-96.4998,1017.24,11111222 
TABS,ioos:station:wmo:42045:1,2013-04-06T08:30:00Z,26.2168,-96.4998,1016.54,11111222 
TABS,ioos:station:wmo:42045:1,2013-04-06T09:00:00Z,26.2168,-96.4998,1017.02,11111222 
TABS,ioos:station:wmo:42045:1,2013-04-06T09:30:00Z,26.2168,-96.4998,1016.68,11111222 
TABS,ioos:station:wmo:42045:1,2013-04-06T10:00:00Z,26.2168,-96.4998,1016.51,11111222 
TABS,ioos:station:wmo:42045:1,2013-04-06T10:30:00Z,26.2168,-96.4998,1016.85,11111222 
TABS,ioos:station:wmo:42045:1,2013-04-06T11:00:00Z,26.2168,-96.4998,1017.02,11111222 
TABS,ioos:station:wmo:42045:1,2013-04-06T11:30:00Z,26.2168,-96.4998,1017.38,11111222 
TABS,ioos:station:wmo:42045:1,2013-04-06T12:00:00Z,26.2168,-96.4998,1017.42,11111222 
TABS,ioos:station:wmo:42045:1,2013-04-06T12:30:00Z,26.2168,-96.4998,1017.75,11111222 
TABS,ioos:station:wmo:42045:1,2013-04-06T13:00:00Z,26.2168,-96.4998,1017.44,11111222 
TABS,ioos:station:wmo:42045:1,2013-04-06T13:30:00Z,26.2168,-96.4998,1017.65,11111222 
TABS,ioos:station:wmo:42045:1,2013-04-06T14:00:00Z,26.2168,-96.4998,1017.61,11111222 
TABS,ioos:station:wmo:42045:1,2013-04-06T14:30:00Z,26.2168,-96.4998,1017.21,11111222 
TABS,ioos:station:wmo:42045:1,2013-04-06T15:00:00Z,26.2168,-96.4998,1016.81,11111222 
TABS,ioos:station:wmo:42045:1,2013-04-06T15:30:00Z,26.2168,-96.4998,1017.8,11111222 
TABS,ioos:station:wmo:42045:1,2013-04-06T16:00:00Z,26.2168,-96.4998,1016.92,11111222 
TABS,ioos:station:wmo:42045:1,2013-04-06T16:30:00Z,26.2168,-96.4998,1017.1,11111222 
TABS,ioos:station:wmo:42045:1,2013-04-06T17:00:00Z,26.2168,-96.4998,1016.8,11111222 
TABS,ioos:station:wmo:42045:1,2013-04-06T17:30:00Z,26.2168,-96.4998,1016.49,11111222 
TABS,ioos:station:wmo:42045:1,2013-04-06T18:00:00Z,26.2168,-96.4998,1016.55,11111222 
TABS,ioos:station:wmo:42045:1,2013-04-06T18:30:00Z,26.2168,-96.4998,1016.55,11111222 
TABS,ioos:station:wmo:42045:1,2013-04-06T19:00:00Z,26.2168,-96.4998,1015.81,11111222 
TABS,ioos:station:wmo:42045:1,2013-04-06T19:30:00Z,26.2168,-96.4998,1015.59,11111222 
TABS,ioos:station:wmo:42045:1,2013-04-06T20:00:00Z,26.2168,-96.4998,1015.02,11111222 
TABS,ioos:station:wmo:42045:1,2013-04-06T20:30:00Z,26.2168,-96.4998,1014.66,11111222 
TABS,ioos:station:wmo:42045:1,2013-04-06T21:00:00Z,26.2168,-96.4998,1014.45,11111222 
TABS,ioos:station:wmo:42045:1,2013-04-06T21:30:00Z,26.2168,-96.4998,1014.01,11111222 
TABS,ioos:station:wmo:42045:1,2013-04-06T22:00:00Z,26.2168,-96.4998,1013.62,11111222 
TABS,ioos:station:wmo:42045:1,2013-04-06T22:30:00Z,26.2168,-96.4998,1013.41,11111222 
TABS,ioos:station:wmo:42045:1,2013-04-06T23:00:00Z,26.2168,-96.4998,1013.25,11111222 
TABS,ioos:station:wmo:42045:1,2013-04-06T23:30:00Z,26.2168,-96.4998,1013.31,11111222 
TABS,ioos:station:wmo:42045:1,2013-04-07T00:00:00Z,26.2168,-96.4998,1013.45,11111222 
TABS,ioos:station:wmo:42045:1,2013-04-07T00:30:00Z,26.2168,-96.4998,1013.69,11111222 
TABS,ioos:station:wmo:42045:1,2013-04-07T01:00:00Z,26.2168,-96.4998,1013.74,11111222 
TABS,ioos:station:wmo:42045:1,2013-04-07T01:30:00Z,26.2168,-96.4998,1013.8,11111222 
TABS,ioos:station:wmo:42045:1,2013-04-07T02:00:00Z,26.2168,-96.4998,1013.88,11111222 
TABS,ioos:station:wmo:42045:1,2013-04-07T02:30:00Z,26.2168,-96.4998,1014.13,11111222 
TABS,ioos:station:wmo:42045:1,2013-04-07T03:00:00Z,26.2168,-96.4998,1014.2,11111222 
TABS,ioos:station:wmo:42045:1,2013-04-07T03:30:00Z,26.2168,-96.4998,1014.31,11111222 
TABS,ioos:station:wmo:42045:1,2013-04-07T04:00:00Z,26.2168,-96.4998,1014.11,11111222 
TABS,ioos:station:wmo:42045:1,2013-04-07T04:30:00Z,26.2168,-96.4998,1013.88,11111222 
TABS,ioos:station:wmo:42045:1,2013-04-07T05:00:00Z,26.2168,-96.4998,1014.2,11111222 
TABS,ioos:station:wmo:42045:1,2013-04-07T05:30:00Z,26.2168,-96.4998,1014.36,11111222 
TABS,ioos:station:wmo:42045:1,2013-04-07T06:00:00Z,26.2168,-96.4998,1014.01,11111222 
TABS,ioos:station:wmo:42045:1,2013-04-07T06:30:00Z,26.2168,-96.4998,1013.54,11111222 
TABS,ioos:station:wmo:42045:1,2013-04-07T07:00:00Z,26.2168,-96.4998,1013.43,11111222 
TABS,ioos:station:wmo:42045:1,2013-04-07T07:30:00Z,26.2168,-96.4998,1013.12,11111222 